Location: Newark
(50.1269°N, 26.8164°E)
Time: 10:32:19
(UTC+00:00)

Envisat - Visible Passes

Search period start: 14 October 2019 00:00
Search period end: 24 October 2019 00:00
Orbit: 764 x 766 km, 98.1° (Epoch: 14 October)

Date Brightness Start Highest point End Pass type
(mag) Time Alt. Az. Time Alt. Az. Time Alt. Az.
14 Oct 3.2 16:15:03 10° S 16:20:07 79° WSW 16:25:15 10° NNW visible
14 Oct 6.2 17:58:01 10° WSW 18:00:00 12° W 18:02:00 10° WNW visible
15 Oct 5.4 17:18:38 10° SW 17:22:45 24° W 17:26:53 10° NW visible
16 Oct 6.4 03:44:21 10° ENE 03:46:41 13° E 03:49:02 10° ESE visible
16 Oct 4.1 16:40:48 10° S 16:45:43 48° W 16:50:39 10° NNW visible
17 Oct 3.0 16:03:46 10° SSE 16:08:51 86° ENE 16:13:59 10° NNW visible
17 Oct 6.0 17:45:41 10° WSW 17:48:34 15° W 17:51:29 10° NW visible
18 Oct 5.0 17:06:57 10° SSW 17:11:23 30° W 17:15:50 10° NNW visible
19 Oct 6.7 03:34:28 10° ENE 03:35:15 10° E 03:36:02 10° E visible
19 Oct 3.6 16:29:23 10° S 16:34:24 59° W 16:39:27 10° NNW visible
20 Oct 3.0 15:52:33 10° SSE 15:57:36 71° ENE 16:02:41 10° N visible
20 Oct 5.7 17:33:39 10° SW 17:37:10 19° W 17:40:42 10° NW visible
21 Oct 6.1 03:57:46 10° NE 04:01:08 18° E 04:04:31 10° SE visible
21 Oct 4.6 16:55:22 10° SSW 17:00:02 36° W 17:04:44 10° NNW visible
22 Oct 3.3 16:18:02 10° S 16:23:06 73° WSW 16:28:13 10° NNW visible
22 Oct 6.2 18:01:37 10° W 18:03:03 11° W 18:04:29 10° WNW visible
23 Oct 3.1 15:41:24 10° SSE 15:46:22 58° ENE 15:51:22 10° N visible
23 Oct 5.4 17:21:48 10° SW 17:25:46 23° W 17:29:45 10° NW visible
